SWA456 KSFO-KLAX

Flight info

Callsign SWA456
Flight time 1h 5m
Altitude 38000
Route KSFO/28L N0444F350 WESLA5 SUSEY DCT EBAYE DCT BURGL IRNMN2 KLAX/24R
Aircraft 737M/M-SDE2E3FGHIRWXY/LB1

Departure

Time 2026-04-23 19:54
Airport San Francisco International Airport (KSFO)

Arrival

Time 2026-04-23 21:00
Airport Los Angeles International Airport (KLAX)
Time Latitude Longitude Altitude Speed Heading
2026-04-23 19:26 37.61858 -122.38120 20 ft 0 kts 203°
2026-04-23 19:43 37.61866 -122.38115 21 ft 2 kts 186°
2026-04-23 19:44 37.61889 -122.38116 21 ft 4 kts 160°
2026-04-23 19:44 37.61904 -122.38124 21 ft 0 kts 157°
2026-04-23 19:49 37.61898 -122.38117 21 ft 6 kts 142°
2026-04-23 19:49 37.61880 -122.38045 20 ft 7 kts 96°
2026-04-23 19:49 37.61869 -122.37982 20 ft 7 kts 108°
2026-04-23 19:49 37.61856 -122.37941 20 ft 8 kts 112°
2026-04-23 19:50 37.61816 -122.37818 16 ft 21 kts 110°
2026-04-23 19:50 37.61770 -122.37671 17 ft 32 kts 112°
2026-04-23 19:50 37.61675 -122.37406 19 ft 22 kts 118°
2026-04-23 19:50 37.61629 -122.37295 21 ft 21 kts 118°
2026-04-23 19:51 37.61561 -122.37133 20 ft 21 kts 117°
2026-04-23 19:51 37.61468 -122.36930 20 ft 20 kts 130°
2026-04-23 19:51 37.61410 -122.36845 18 ft 19 kts 128°
2026-04-23 19:51 37.61339 -122.36711 18 ft 19 kts 121°
2026-04-23 19:52 37.61274 -122.36564 15 ft 18 kts 116°
2026-04-23 19:52 37.61217 -122.36426 15 ft 17 kts 118°
2026-04-23 19:52 37.61144 -122.36250 16 ft 17 kts 117°
2026-04-23 19:52 37.61108 -122.36122 16 ft 14 kts 83°
2026-04-23 19:53 37.61156 -122.36070 16 ft 14 kts 26°
2026-04-23 19:53 37.61246 -122.36040 13 ft 14 kts 334°
2026-04-23 19:53 37.61313 -122.36180 14 ft 46 kts 298°
2026-04-23 19:53 37.61628 -122.36925 20 ft 142 kts 297°
2026-04-23 19:54 37.62215 -122.38285 365 ft 196 kts 301°
2026-04-23 19:54 37.62861 -122.39744 1794 ft 186 kts 297°
2026-04-23 19:54 37.63466 -122.41322 2765 ft 211 kts 297°
2026-04-23 19:54 37.64124 -122.43069 3359 ft 222 kts 293°
2026-04-23 19:55 37.64754 -122.44894 3468 ft 233 kts 296°
2026-04-23 19:55 37.65537 -122.46671 3673 ft 237 kts 300°
2026-04-23 19:55 37.66360 -122.48490 3944 ft 239 kts 297°
2026-04-23 19:55 37.66726 -122.50511 4253 ft 242 kts 265°
2026-04-23 19:56 37.66109 -122.52481 4508 ft 247 kts 231°
2026-04-23 19:56 37.64812 -122.53798 4573 ft 237 kts 207°
2026-04-23 19:56 37.63269 -122.54217 4540 ft 227 kts 174°
2026-04-23 19:56 37.61784 -122.53627 4547 ft 218 kts 158°
2026-04-23 19:57 37.60412 -122.52918 4525 ft 215 kts 158°
2026-04-23 19:57 37.59042 -122.52218 4542 ft 210 kts 158°
2026-04-23 19:57 37.57698 -122.51550 4634 ft 206 kts 159°
2026-04-23 19:57 37.56360 -122.50901 4604 ft 205 kts 159°
2026-04-23 19:58 37.55037 -122.50277 4668 ft 200 kts 159°
2026-04-23 19:58 37.53742 -122.49674 4637 ft 198 kts 160°
2026-04-23 19:58 37.52463 -122.49083 4634 ft 192 kts 159°
2026-04-23 19:58 37.51237 -122.48512 4628 ft 190 kts 160°
2026-04-23 19:59 37.49988 -122.47934 4535 ft 192 kts 160°
2026-04-23 19:59 37.48779 -122.47224 4410 ft 190 kts 138°
2026-04-23 19:59 37.47878 -122.46042 4334 ft 188 kts 131°
2026-04-23 19:59 37.46961 -122.44779 4204 ft 214 kts 131°
2026-04-23 20:00 37.45871 -122.43276 4379 ft 248 kts 132°
2026-04-23 20:00 37.44653 -122.41603 4806 ft 268 kts 132°
2026-04-23 20:00 37.43355 -122.39827 5530 ft 277 kts 131°
2026-04-23 20:00 37.42049 -122.38044 6398 ft 281 kts 131°
2026-04-23 20:01 37.40714 -122.36225 7105 ft 289 kts 131°
2026-04-23 20:01 37.39353 -122.34373 8047 ft 287 kts 131°
2026-04-23 20:01 37.37998 -122.32531 8876 ft 291 kts 131°
2026-04-23 20:01 37.36596 -122.30625 9594 ft 298 kts 131°
2026-04-23 20:02 37.35184 -122.28708 10399 ft 301 kts 132°
2026-04-23 20:02 37.33718 -122.26720 10734 ft 321 kts 132°
2026-04-23 20:02 37.32151 -122.24594 11031 ft 341 kts 131°
2026-04-23 20:02 37.30521 -122.22386 11696 ft 347 kts 132°
2026-04-23 20:03 37.28882 -122.20171 12495 ft 348 kts 131°
2026-04-23 20:03 37.27213 -122.17914 13128 ft 357 kts 131°
2026-04-23 20:03 37.25532 -122.15643 13996 ft 358 kts 131°
2026-04-23 20:03 37.23833 -122.13349 14790 ft 360 kts 132°
2026-04-23 20:04 37.22121 -122.11039 15491 ft 365 kts 132°
2026-04-23 20:04 37.20380 -122.08693 16287 ft 367 kts 132°
2026-04-23 20:04 37.18637 -122.06346 17046 ft 371 kts 132°
2026-04-23 20:04 37.16855 -122.03945 17607 ft 380 kts 132°
2026-04-23 20:05 37.15059 -122.01530 18458 ft 380 kts 132°
2026-04-23 20:05 37.13248 -121.99094 19014 ft 386 kts 132°
2026-04-23 20:05 37.11401 -121.96615 19588 ft 391 kts 133°
2026-04-23 20:05 37.09553 -121.94135 20197 ft 395 kts 133°
2026-04-23 20:06 37.07676 -121.91618 20778 ft 399 kts 133°
2026-04-23 20:06 37.05763 -121.89055 21331 ft 405 kts 134°
2026-04-23 20:06 37.03826 -121.86462 21844 ft 410 kts 134°
2026-04-23 20:06 37.01867 -121.83841 22392 ft 415 kts 134°
2026-04-23 20:07 36.99886 -121.81193 22941 ft 419 kts 134°
2026-04-23 20:07 36.97880 -121.78514 23438 ft 425 kts 135°
2026-04-23 20:07 36.95836 -121.75788 23876 ft 431 kts 135°
2026-04-23 20:07 36.93803 -121.73077 24338 ft 434 kts 135°
2026-04-23 20:08 36.91736 -121.70323 24832 ft 437 kts 135°
2026-04-23 20:08 36.89650 -121.67546 25286 ft 440 kts 135°
2026-04-23 20:08 36.87545 -121.64746 25720 ft 444 kts 136°
2026-04-23 20:08 36.85419 -121.61920 26157 ft 447 kts 136°
2026-04-23 20:09 36.83280 -121.59081 26568 ft 451 kts 136°
2026-04-23 20:09 36.81126 -121.56223 26981 ft 454 kts 136°
2026-04-23 20:09 36.78952 -121.53342 27381 ft 457 kts 137°
2026-04-23 20:09 36.76763 -121.50441 27795 ft 461 kts 137°
2026-04-23 20:10 36.74584 -121.47560 28159 ft 465 kts 137°
2026-04-23 20:10 36.72354 -121.44613 28563 ft 468 kts 137°
2026-04-23 20:10 36.70110 -121.41645 28959 ft 471 kts 137°
2026-04-23 20:10 36.67860 -121.38663 29329 ft 474 kts 137°
2026-04-23 20:11 36.65585 -121.35666 29679 ft 478 kts 138°
2026-04-23 20:11 36.63299 -121.32662 30017 ft 481 kts 138°
2026-04-23 20:11 36.60993 -121.29631 30367 ft 483 kts 138°
2026-04-23 20:11 36.58677 -121.26588 30676 ft 486 kts 138°
2026-04-23 20:12 36.56338 -121.23516 30980 ft 488 kts 138°
2026-04-23 20:12 36.54031 -121.20487 31279 ft 490 kts 139°
2026-04-23 20:12 36.51690 -121.17416 31654 ft 489 kts 139°
2026-04-23 20:12 36.49361 -121.14362 32103 ft 487 kts 139°
2026-04-23 20:13 36.47019 -121.11293 32513 ft 487 kts 139°
2026-04-23 20:13 36.44688 -121.08246 32869 ft 487 kts 139°
2026-04-23 20:13 36.42363 -121.05197 33210 ft 488 kts 138°
2026-04-23 20:13 36.40093 -121.02049 33610 ft 489 kts 136°
2026-04-23 20:14 36.37906 -120.98888 33971 ft 489 kts 136°
2026-04-23 20:14 36.35714 -120.95674 34325 ft 489 kts 136°
2026-04-23 20:14 36.33517 -120.92454 34622 ft 489 kts 136°
2026-04-23 20:14 36.31318 -120.89252 34965 ft 488 kts 136°
2026-04-23 20:15 36.29098 -120.86043 35178 ft 490 kts 137°
2026-04-23 20:15 36.24620 -120.79625 35177 ft 492 kts 137°
2026-04-23 20:16 36.20200 -120.73307 35157 ft 485 kts 137°
2026-04-23 20:16 36.15777 -120.67003 35164 ft 485 kts 137°
2026-04-23 20:17 36.11343 -120.60696 35169 ft 487 kts 137°
2026-04-23 20:17 36.06896 -120.54462 35169 ft 484 kts 138°
2026-04-23 20:18 36.02467 -120.48177 35162 ft 486 kts 137°
2026-04-23 20:18 35.98049 -120.41848 35165 ft 487 kts 137°
2026-04-23 20:19 35.93590 -120.35532 35156 ft 489 kts 137°
2026-04-23 20:19 35.89107 -120.29212 35155 ft 488 kts 137°
2026-04-23 20:20 35.84152 -120.23823 35152 ft 471 kts 156°
2026-04-23 20:20 35.78555 -120.19717 35165 ft 468 kts 157°
2026-04-23 20:21 35.72963 -120.15578 35156 ft 468 kts 156°
2026-04-23 20:21 35.67419 -120.11394 35160 ft 467 kts 156°
2026-04-23 20:22 35.61886 -120.07218 35156 ft 466 kts 156°
2026-04-23 20:22 35.56398 -120.03081 35154 ft 465 kts 156°
2026-04-23 20:23 35.50906 -119.98943 35156 ft 464 kts 156°
2026-04-23 20:23 35.45392 -119.94797 35155 ft 464 kts 156°
2026-04-23 20:24 35.39898 -119.90672 35108 ft 455 kts 156°
2026-04-23 20:24 35.37288 -119.88706 35136 ft 440 kts 156°
2026-04-23 20:24 35.34721 -119.86778 35122 ft 427 kts 156°
2026-04-23 20:24 35.32216 -119.84901 35129 ft 415 kts 156°
2026-04-23 20:25 35.29793 -119.83089 35119 ft 403 kts 157°
2026-04-23 20:25 35.25260 -119.79245 34823 ft 395 kts 150°
2026-04-23 20:25 35.23095 -119.77179 34442 ft 396 kts 149°
2026-04-23 20:26 35.20949 -119.75115 33923 ft 399 kts 149°
2026-04-23 20:26 35.18700 -119.72970 32803 ft 417 kts 149°
2026-04-23 20:26 35.16355 -119.70764 31425 ft 443 kts 148°
2026-04-23 20:26 35.13879 -119.68443 30563 ft 453 kts 148°
2026-04-23 20:27 35.11386 -119.66105 30207 ft 449 kts 148°
2026-04-23 20:27 35.08918 -119.63790 29910 ft 442 kts 148°
2026-04-23 20:27 35.06501 -119.61531 29483 ft 437 kts 148°
2026-04-23 20:27 35.04085 -119.59281 29004 ft 435 kts 148°
2026-04-23 20:28 35.01692 -119.57059 28563 ft 431 kts 148°
2026-04-23 20:28 34.99318 -119.54856 28113 ft 428 kts 148°
2026-04-23 20:28 34.96948 -119.52657 27667 ft 425 kts 148°
2026-04-23 20:28 34.94631 -119.50508 27222 ft 423 kts 148°
2026-04-23 20:29 34.92295 -119.48346 26814 ft 420 kts 148°
2026-04-23 20:29 34.89965 -119.46207 26418 ft 417 kts 149°
2026-04-23 20:29 34.87633 -119.44124 26001 ft 414 kts 149°
2026-04-23 20:29 34.85322 -119.42068 25601 ft 411 kts 149°
2026-04-23 20:30 34.83022 -119.40014 25237 ft 408 kts 148°
2026-04-23 20:30 34.78469 -119.35944 24469 ft 404 kts 148°
2026-04-23 20:30 34.76241 -119.33957 24095 ft 402 kts 148°
2026-04-23 20:31 34.73964 -119.31931 23742 ft 400 kts 149°
2026-04-23 20:31 34.71748 -119.29988 23308 ft 397 kts 149°
2026-04-23 20:31 34.69510 -119.28039 22908 ft 395 kts 149°
2026-04-23 20:31 34.67283 -119.26104 22472 ft 392 kts 149°
2026-04-23 20:32 34.65079 -119.24184 22093 ft 390 kts 149°
2026-04-23 20:32 34.62870 -119.22267 21685 ft 388 kts 149°
2026-04-23 20:32 34.60677 -119.20376 21259 ft 386 kts 149°
2026-04-23 20:32 34.58509 -119.18549 20837 ft 385 kts 149°
2026-04-23 20:33 34.56340 -119.16667 20471 ft 382 kts 149°
2026-04-23 20:33 34.54199 -119.14770 20144 ft 380 kts 148°
2026-04-23 20:33 34.52083 -119.12874 19804 ft 378 kts 148°
2026-04-23 20:33 34.49965 -119.10983 19431 ft 376 kts 148°
2026-04-23 20:34 34.47865 -119.09126 19171 ft 373 kts 148°
2026-04-23 20:34 34.45765 -119.07285 18804 ft 372 kts 148°
2026-04-23 20:34 34.43671 -119.05444 18479 ft 370 kts 149°
2026-04-23 20:34 34.41586 -119.03630 18136 ft 368 kts 149°
2026-04-23 20:35 34.39509 -119.01831 17758 ft 366 kts 149°
2026-04-23 20:35 34.37468 -119.00066 17374 ft 364 kts 149°
2026-04-23 20:35 34.35426 -118.98299 17027 ft 361 kts 148°
2026-04-23 20:35 34.33396 -118.96528 16697 ft 359 kts 147°
2026-04-23 20:36 34.31400 -118.94718 16352 ft 356 kts 147°
2026-04-23 20:36 34.29428 -118.92915 15981 ft 355 kts 147°
2026-04-23 20:36 34.27464 -118.91126 15625 ft 353 kts 147°
2026-04-23 20:36 34.25528 -118.89368 15291 ft 351 kts 147°
2026-04-23 20:37 34.23590 -118.87594 14952 ft 349 kts 146°
2026-04-23 20:37 34.21760 -118.85909 14630 ft 347 kts 146°
2026-04-23 20:37 34.19847 -118.84150 14298 ft 345 kts 146°
2026-04-23 20:37 34.17943 -118.82400 14015 ft 342 kts 146°
2026-04-23 20:38 34.16082 -118.80668 13914 ft 333 kts 144°
2026-04-23 20:38 34.14369 -118.78871 13714 ft 328 kts 141°
2026-04-23 20:38 34.12691 -118.77011 13338 ft 327 kts 140°
2026-04-23 20:38 34.11008 -118.75137 12946 ft 328 kts 140°
2026-04-23 20:39 34.09332 -118.73290 12632 ft 326 kts 140°
2026-04-23 20:39 34.07651 -118.71454 12386 ft 322 kts 140°
2026-04-23 20:39 34.06034 -118.69690 12215 ft 316 kts 140°
2026-04-23 20:39 34.04410 -118.67961 12102 ft 311 kts 141°
2026-04-23 20:40 34.03089 -118.65891 11753 ft 315 kts 112°
2026-04-23 20:40 34.02590 -118.63367 11595 ft 308 kts 96°
2026-04-23 20:40 34.02378 -118.60817 11356 ft 305 kts 95°
2026-04-23 20:40 34.02172 -118.58286 11084 ft 304 kts 95°
2026-04-23 20:41 34.01951 -118.55754 10809 ft 302 kts 95°
2026-04-23 20:41 34.01733 -118.53329 10656 ft 296 kts 96°
2026-04-23 20:41 34.01521 -118.51047 10588 ft 286 kts 96°
2026-04-23 20:41 34.01300 -118.48702 10511 ft 279 kts 96°
2026-04-23 20:42 34.01085 -118.46409 10438 ft 270 kts 95°
2026-04-23 20:42 34.01178 -118.44218 10290 ft 262 kts 76°
2026-04-23 20:42 34.01590 -118.42122 10105 ft 259 kts 75°
2026-04-23 20:42 34.01977 -118.40030 9856 ft 260 kts 76°
2026-04-23 20:43 34.02347 -118.37941 9635 ft 258 kts 76°
2026-04-23 20:43 34.02701 -118.35904 9473 ft 254 kts 77°
2026-04-23 20:43 34.02969 -118.33798 9190 ft 256 kts 82°
2026-04-23 20:43 34.03175 -118.31665 8971 ft 254 kts 82°
2026-04-23 20:44 34.03366 -118.29565 8781 ft 250 kts 86°
2026-04-23 20:44 34.03065 -118.27528 8462 ft 253 kts 112°
2026-04-23 20:44 34.02424 -118.25620 8262 ft 250 kts 111°
2026-04-23 20:44 34.01824 -118.23745 7945 ft 254 kts 110°
2026-04-23 20:45 34.01170 -118.21799 7837 ft 247 kts 120°
2026-04-23 20:45 33.99981 -118.20422 7591 ft 235 kts 159°
2026-04-23 20:45 33.98402 -118.20254 7194 ft 231 kts 199°
2026-04-23 20:45 33.97139 -118.21392 6827 ft 232 kts 240°
2026-04-23 20:46 33.96707 -118.23262 6362 ft 239 kts 266°
2026-04-23 20:46 33.96592 -118.25271 5891 ft 239 kts 266°
2026-04-23 20:46 33.96471 -118.27279 5034 ft 249 kts 267°
2026-04-23 20:46 33.96325 -118.29407 4108 ft 254 kts 265°
2026-04-23 20:47 33.96095 -118.31484 3182 ft 253 kts 262°
2026-04-23 20:47 33.95877 -118.33579 2077 ft 254 kts 264°
2026-04-23 20:47 33.95629 -118.35695 1176 ft 248 kts 261°
2026-04-23 20:47 33.95479 -118.37706 1391 ft 226 kts 265°
2026-04-23 20:48 33.95383 -118.39361 2017 ft 174 kts 263°
2026-04-23 20:48 33.95248 -118.40622 2216 ft 148 kts 263°
2026-04-23 20:48 33.95113 -118.41911 1705 ft 168 kts 263°
2026-04-23 20:48 33.94952 -118.43387 1261 ft 182 kts 262°
2026-04-23 20:49 33.94810 -118.44897 1136 ft 182 kts 269°
2026-04-23 20:49 33.94864 -118.46405 1065 ft 176 kts 270°
2026-04-23 20:49 33.94906 -118.47863 1055 ft 171 kts 271°
2026-04-23 20:49 33.94953 -118.49455 1289 ft 216 kts 270°
2026-04-23 20:50 33.94985 -118.51230 1642 ft 208 kts 271°
2026-04-23 20:50 33.95022 -118.52932 1666 ft 211 kts 271°
2026-04-23 20:50 33.95062 -118.54722 1699 ft 215 kts 271°
2026-04-23 20:50 33.95103 -118.56511 1692 ft 216 kts 271°
2026-04-23 20:51 33.95146 -118.58268 1681 ft 215 kts 269°
2026-04-23 20:51 33.95187 -118.60044 1670 ft 210 kts 270°
2026-04-23 20:51 33.95225 -118.61778 1755 ft 209 kts 270°
2026-04-23 20:51 33.95264 -118.63556 2136 ft 216 kts 270°
2026-04-23 20:52 33.95304 -118.65364 2996 ft 219 kts 271°
2026-04-23 20:52 33.95345 -118.67203 3418 ft 219 kts 273°
2026-04-23 20:52 33.95386 -118.69062 3651 ft 227 kts 272°
2026-04-23 20:52 33.95428 -118.70993 3648 ft 233 kts 273°
2026-04-23 20:53 33.95470 -118.72939 3659 ft 233 kts 272°
2026-04-23 20:53 33.95276 -118.74861 3631 ft 233 kts 246°
2026-04-23 20:53 33.94260 -118.76327 3651 ft 229 kts 212°
2026-04-23 20:53 33.92770 -118.76907 3657 ft 226 kts 180°
2026-04-23 20:54 33.91272 -118.76483 3639 ft 223 kts 148°
2026-04-23 20:54 33.90188 -118.75205 3672 ft 218 kts 117°
2026-04-23 20:54 33.89730 -118.73502 3653 ft 219 kts 94°
2026-04-23 20:54 33.89674 -118.71661 3655 ft 221 kts 89°
2026-04-23 20:55 33.89641 -118.69820 3650 ft 221 kts 90°
2026-04-23 20:55 33.89606 -118.67966 3645 ft 220 kts 89°
2026-04-23 20:55 33.89587 -118.66138 3636 ft 219 kts 84°
2026-04-23 20:55 33.90048 -118.64405 3641 ft 219 kts 65°
2026-04-23 20:56 33.90671 -118.62677 3274 ft 223 kts 68°
2026-04-23 20:56 33.91238 -118.60994 3019 ft 210 kts 68°
2026-04-23 20:56 33.91759 -118.59404 2773 ft 197 kts 69°
2026-04-23 20:56 33.92220 -118.57973 2544 ft 185 kts 69°
2026-04-23 20:57 33.92677 -118.56549 2322 ft 177 kts 68°
2026-04-23 20:57 33.93115 -118.55179 2096 ft 175 kts 69°
2026-04-23 20:57 33.93551 -118.53812 1904 ft 176 kts 69°
2026-04-23 20:57 33.93806 -118.52387 1711 ft 170 kts 84°
2026-04-23 20:58 33.93932 -118.51017 1451 ft 160 kts 82°
2026-04-23 20:58 33.94056 -118.49728 1201 ft 157 kts 83°
2026-04-23 20:58 33.94173 -118.48407 941 ft 160 kts 82°
2026-04-23 20:58 33.94317 -118.47066 665 ft 159 kts 84°
2026-04-23 20:59 33.94455 -118.45772 484 ft 157 kts 85°
2026-04-23 20:59 33.94582 -118.44431 318 ft 159 kts 85°
2026-04-23 20:59 33.94719 -118.43164 142 ft 146 kts 85°
2026-04-23 20:59 33.94824 -118.42043 121 ft 118 kts 83°
2026-04-23 21:00 33.94888 -118.41414 125 ft 34 kts 82°
2026-04-23 21:00 33.94920 -118.41128 125 ft 24 kts 90°
2026-04-23 21:00 33.94874 -118.41073 121 ft 0 kts 181°